When you browse on this site, cookies collect data to enhance your experience and personalize the content and advertising you see.
Visit our Privacy Policy to learn more. By continuing to use the site, you agree to this use of cookies and data.
  • In Deutschland
  • Länderverzeichnis
  • Für 7 Tage
  • Wassertemperatur
  • Satellitenkarten
  • Wetterkarte
  • Widgets
  • user-avatar
    Anmelden

    Stündliche Wetter Cataratas del Iguazù

    Heute, 18 November, Sonntag

    Zeit Temperatur Niederschläge Wind Luftdruck Luftfeuchtigkeit
    00:00 +27°C° 0.2 mm 2 m/S 737 mmHg 80%
    01:00 +27°C° 0.2 mm 2 m/S 736 mmHg 82%
    02:00 +26°C° 0 mm 2 m/S 736 mmHg 86%
    03:00 +26°C° 2.4 mm 2 m/S 736 mmHg 89%
    04:00 +25°C° 2.4 mm 1 m/S 736 mmHg 92%
    05:00 +25°C° 2.4 mm 1 m/S 737 mmHg 95%
    06:00 +25°C° 5.3 mm 1 m/S 737 mmHg 95%
    07:00 +25°C° 5.3 mm 2 m/S 738 mmHg 95%
    08:00 +22°C° 0 mm 3 m/S 739 mmHg 91%
    09:00 +21°C° 1.7 mm 2 m/S 739 mmHg 92%
    10:00 +22°C° 1.7 mm 1 m/S 739 mmHg 93%
    11:00 +21°C° 1.7 mm 1 m/S 740 mmHg 94%
    12:00 +22°C° 0.1 mm 1 m/S 740 mmHg 91%
    13:00 +22°C° 0.1 mm 1 m/S 740 mmHg 88%
    14:00 +23°C° 0.1 mm 1 m/S 740 mmHg 85%
    15:00 +24°C° 0 mm 1 m/S 739 mmHg 81%
    16:00 +25°C° 0 mm 1 m/S 739 mmHg 77%
    17:00 +25°C° 0 mm 1 m/S 739 mmHg 73%
    18:00 +24°C° 0 mm 1 m/S 739 mmHg 79%
    19:00 +24°C° 0 mm 1 m/S 740 mmHg 85%
    20:00 +23°C° 0 mm 1 m/S 740 mmHg 90%
    21:00 +22°C° 0 mm 1 m/S 740 mmHg 90%
    22:00 +21°C° 0 mm 2 m/S 740 mmHg 90%
    23:00 +20°C° 0 mm 2 m/S 741 mmHg 90%

    Morgen, 19 November, Montag

    Zeit Temperatur Niederschläge Wind Luftdruck Luftfeuchtigkeit
    00:00 +20°C° 0 mm 2 m/S 740 mmHg 89%
    01:00 +19°C° 0 mm 2 m/S 740 mmHg 88%
    02:00 +19°C° 0 mm 2 m/S 740 mmHg 86%
    03:00 +18°C° 0 mm 2 m/S 740 mmHg 88%
    04:00 +18°C° 0 mm 2 m/S 741 mmHg 89%
    05:00 +18°C° 0 mm 1 m/S 741 mmHg 90%
    06:00 +19°C° 0 mm 2 m/S 741 mmHg 81%
    07:00 +21°C° 0 mm 2 m/S 741 mmHg 71%
    08:00 +24°C° 0 mm 2 m/S 742 mmHg 62%
    09:00 +27°C° 0 mm 1 m/S 741 mmHg 53%
    10:00 +30°C° 0 mm 1 m/S 741 mmHg 44%
    11:00 +33°C° 0 mm 1 m/S 741 mmHg 36%
    12:00 +34°C° 0 mm 1 m/S 740 mmHg 32%
    13:00 +35°C° 0 mm 1 m/S 740 mmHg 29%
    14:00 +35°C° 0 mm 1 m/S 739 mmHg 25%
    15:00 +34°C° 0 mm 1 m/S 739 mmHg 30%
    16:00 +33°C° 0 mm 1 m/S 738 mmHg 35%
    17:00 +31°C° 0 mm 1 m/S 738 mmHg 40%
    18:00 +29°C° 0 mm 1 m/S 738 mmHg 47%
    19:00 +26°C° 0 mm 1 m/S 739 mmHg 53%
    20:00 +24°C° 0 mm 1 m/S 739 mmHg 59%
    21:00 +23°C° 0 mm 1 m/S 740 mmHg 63%
    22:00 +22°C° 0 mm 1 m/S 740 mmHg 67%
    23:00 +21°C° 0 mm 1 m/S 740 mmHg 71%

    übermorgen, 20 November, Dienstag

    Zeit Temperatur Niederschläge Wind Luftdruck Luftfeuchtigkeit
    00:00 +21°C° 0 mm 1 m/S 740 mmHg 74%
    01:00 +21°C° 0 mm 1 m/S 740 mmHg 78%
    02:00 +21°C° 0 mm 1 m/S 740 mmHg 81%
    03:00 +21°C° 0 mm 1 m/S 740 mmHg 83%
    04:00 +21°C° 0 mm 1 m/S 740 mmHg 86%
    05:00 +21°C° 0 mm 1 m/S 741 mmHg 88%
    06:00 +23°C° 0 mm 1 m/S 741 mmHg 78%
    07:00 +25°C° 0 mm 1 m/S 742 mmHg 68%
    08:00 +27°C° 0 mm 2 m/S 742 mmHg 58%
    09:00 +29°C° 0 mm 2 m/S 742 mmHg 52%
    10:00 +32°C° 0 mm 1 m/S 742 mmHg 45%
    11:00 +34°C° 0 mm 1 m/S 742 mmHg 39%
    12:00 +35°C° 0 mm 1 m/S 741 mmHg 36%
    13:00 +36°C° 0 mm 1 m/S 741 mmHg 33%
    14:00 +37°C° 0 mm 1 m/S 740 mmHg 30%
    15:00 +35°C° 0 mm 1 m/S 739 mmHg 35%
    16:00 +34°C° 0 mm 1 m/S 739 mmHg 39%
    17:00 +33°C° 0 mm 1 m/S 738 mmHg 43%
    18:00 +29°C° 0 mm 0 m/S 739 mmHg 49%
    19:00 +26°C° 0 mm 0 m/S 739 mmHg 55%
    20:00 +24°C° 0 mm 0 m/S 739 mmHg 61%
    21:00 +23°C° 0 mm 0 m/S 740 mmHg 64%
    22:00 +22°C° 0 mm 0 m/S 740 mmHg 67%
    23:00 +23°C° 0 mm 1 m/S 740 mmHg 70%

    21 November, Mittwoch

    Zeit Temperatur Niederschläge Wind Luftdruck Luftfeuchtigkeit
    00:00 +23°C° 0 mm 1 m/S 740 mmHg 71%
    01:00 +23°C° 0 mm 1 m/S 740 mmHg 72%
    02:00 +22°C° 0 mm 1 m/S 739 mmHg 73%
    03:00 +22°C° 0 mm 1 m/S 740 mmHg 73%
    04:00 +21°C° 0 mm 1 m/S 740 mmHg 73%
    05:00 +21°C° 0 mm 1 m/S 740 mmHg 73%
    06:00 +23°C° 0 mm 2 m/S 741 mmHg 65%
    07:00 +25°C° 0 mm 2 m/S 741 mmHg 57%
    08:00 +27°C° 0 mm 2 m/S 742 mmHg 49%
    09:00 +29°C° 0 mm 2 m/S 742 mmHg 43%
    10:00 +31°C° 0 mm 2 m/S 741 mmHg 37%
    11:00 +35°C° 0 mm 2 m/S 741 mmHg 32%
    12:00 +35°C° 0 mm 2 m/S 740 mmHg 30%
    13:00 +36°C° 0 mm 2 m/S 739 mmHg 29%
    14:00 +36°C° 0 mm 1 m/S 739 mmHg 27%
    15:00 +35°C° 0 mm 1 m/S 738 mmHg 31%
    16:00 +34°C° 0 mm 1 m/S 738 mmHg 35%
    17:00 +33°C° 0 mm 1 m/S 737 mmHg 40%
    18:00 +31°C° 0 mm 1 m/S 738 mmHg 45%
    19:00 +28°C° 0 mm 1 m/S 738 mmHg 51%
    20:00 +26°C° 0 mm 1 m/S 738 mmHg 57%
    21:00 +25°C° 0 mm 1 m/S 738 mmHg 60%
    22:00 +25°C° 0 mm 1 m/S 738 mmHg 62%
    23:00 +24°C° 0 mm 2 m/S 738 mmHg 65%

    22 November, Donnerstag

    Zeit Temperatur Niederschläge Wind Luftdruck Luftfeuchtigkeit
    00:00 +24°C° 0 mm 2 m/S 738 mmHg 70%
    01:00 +24°C° 0 mm 2 m/S 738 mmHg 76%
    02:00 +24°C° 0 mm 2 m/S 738 mmHg 81%
    03:00 +23°C° 0 mm 2 m/S 738 mmHg 83%
    04:00 +23°C° 0 mm 1 m/S 738 mmHg 85%
    05:00 +22°C° 0 mm 1 m/S 739 mmHg 88%
    06:00 +24°C° 0 mm 2 m/S 739 mmHg 79%
    07:00 +26°C° 0 mm 2 m/S 739 mmHg 71%
    08:00 +28°C° 0 mm 2 m/S 740 mmHg 63%
    09:00 +29°C° 0 mm 2 m/S 739 mmHg 59%
    10:00 +31°C° 0 mm 2 m/S 739 mmHg 56%
    11:00 +33°C° 0 mm 3 m/S 739 mmHg 52%
    12:00 +34°C° 0 mm 2 m/S 738 mmHg 49%
    13:00 +35°C° 0 mm 2 m/S 738 mmHg 47%
    14:00 +35°C° 0 mm 2 m/S 737 mmHg 44%
    15:00 +35°C° 0 mm 2 m/S 737 mmHg 47%
    16:00 +33°C° 0 mm 1 m/S 736 mmHg 50%
    17:00 +33°C° 0 mm 1 m/S 736 mmHg 53%
    18:00 +31°C° 0 mm 1 m/S 736 mmHg 60%
    19:00 +29°C° 0 mm 1 m/S 737 mmHg 66%
    20:00 +27°C° 0 mm 1 m/S 737 mmHg 73%
    21:00 +26°C° 0 mm 1 m/S 737 mmHg 77%
    22:00 +26°C° 0 mm 1 m/S 737 mmHg 81%
    23:00 +25°C° 0 mm 1 m/S 738 mmHg 84%

    23 November, Freitag

    Zeit Temperatur Niederschläge Wind Luftdruck Luftfeuchtigkeit
    00:00 +25°C° 0 mm 1 m/S 737 mmHg 86%
    01:00 +24°C° 0 mm 1 m/S 737 mmHg 88%
    02:00 +24°C° 0 mm 1 m/S 737 mmHg 90%
    03:00 +24°C° 0 mm 1 m/S 737 mmHg 90%
    04:00 +24°C° 0 mm 1 m/S 738 mmHg 91%
    05:00 +23°C° 0 mm 1 m/S 738 mmHg 91%
    06:00 +25°C° 0.3 mm 1 m/S 738 mmHg 87%
    07:00 +26°C° 0.3 mm 2 m/S 739 mmHg 83%
    08:00 +27°C° 0.3 mm 2 m/S 739 mmHg 78%
    09:00 +29°C° 0.7 mm 1 m/S 739 mmHg 74%
    10:00 +30°C° 0.7 mm 1 m/S 738 mmHg 71%
    11:00 +32°C° 0.7 mm 1 m/S 738 mmHg 67%
    12:00 +32°C° 0.3 mm 1 m/S 738 mmHg 62%
    13:00 +33°C° 0.3 mm 1 m/S 737 mmHg 57%
    14:00 +33°C° 0.3 mm 1 m/S 737 mmHg 52%
    15:00 +32°C° 0.2 mm 1 m/S 736 mmHg 56%
    16:00 +31°C° 0.2 mm 1 m/S 736 mmHg 61%
    17:00 +30°C° 0.2 mm 1 m/S 736 mmHg 65%
    18:00 +29°C° 0.1 mm 1 m/S 736 mmHg 71%
    19:00 +27°C° 0.1 mm 1 m/S 737 mmHg 76%
    20:00 +26°C° 0.1 mm 1 m/S 737 mmHg 81%
    21:00 +26°C° 0.1 mm 1 m/S 737 mmHg 84%
    22:00 +25°C° 0.1 mm 1 m/S 737 mmHg 86%
    23:00 +25°C° 0.1 mm 1 m/S 737 mmHg 89%
    Mehr zeigen